Location: Aldenham
(51.6667°N, 0.3500°W)
Time: 06:32:07
(UTC+00:00)

A-11 Canister half - Pass Details

Date: 17 February 2026
Orbit: 1512 x 1687 km, 47.2° (Epoch: 8 March)

Event Time Altitude Azimuth Distance (km) Brightness Sun altitude
Rises 22:51:45 0° 250° (WSW) 4,931 11.8 -46.6°
Reaches altitude 10° 22:54:58 10° 248° (WSW) 3,934 11.1 -46.9°
Enters shadow 22:55:18 11° 247° (WSW) 3,831 11.1 -46.9°
Maximum altitude 23:04:54 66° 169° (S) 1,770 - -47.6°
Drops below altitude 10° 23:14:32 10° 90° (E) 3,821 - -48.2°
Sets 23:17:37 0° 88° (E) 4,783 - -48.4°
